Regional Weather Roundup
Issued by NWS

Home | Current Version | Previous Version | Graphics & Text | Print | Product List | Glossary Off
Versions: 1 2 3 4 5 6 7 8 9 10 11 12 13 14 15 16 17 18 19 20 21 22 23 24 25 26 27 28 29 30 31 32 33 34 35 36 37 38 39 40 41 42 43 44 45 46 47 48 49 50

000
ASUS43 KFSD 231502
RWRSD

WEATHER ROUNDUP FOR SOUTH DAKOTA
NATIONAL WEATHER SERVICE SIOUX FALLS SD
1000 AM CDT SAT MAY 23 2015

NOTE: "FAIR" INDICATES FEW OR NO CLOUDS BELOW 12,000 FEET WITH NO
SIGNIFICANT WEATHER AND/OR OBSTRUCTIONS TO VISIBILITY.


SDZ001>005-009-010-012>017-231600-
NORTHWEST AND NORTH CENTRAL SOUTH DAKOTA

CITY           SKY/WX    TMP DP  RH WIND       PRES   REMARKS
FAITH            N/A     50  44  80 SE14      30.10S
MOBRIDGE       CLOUDY    57  47  69 SE10      30.12S
$$

SDZ012>016-024>037-041>051-057-063-072>074-231600-
SOUTHWEST AND SOUTH CENTRAL SOUTH DAKOTA

CITY           SKY/WX    TMP DP  RH WIND       PRES   REMARKS
RAPID CTY ARPT CLOUDY    50  46  86 SE14      30.07R
PIERRE         CLOUDY    52  49  89 SE15      30.12R
CUSTER         CLOUDY    42  41  96 E5        30.07R FOG
ELLSWORTH AFB  CLOUDY    50  46  88 SE13      30.07
PHILIP         CLOUDY    52  48  86 E8        30.10R
PINE RIDGE     PTSUNNY   54  47  77 E12       30.05F
WINNER         LGT RAIN  53  50  89 SE12      30.12R FOG
$$

SDZ004>011-016>023-039-040-231600-
NORTHEAST SOUTH DAKOTA

CITY           SKY/WX    TMP DP  RH WIND       PRES   REMARKS
ABERDEEN       PTSUNNY   63  44  50 E15       30.17F
WATERTOWN      CLOUDY    61  45  55 SE16      30.19F
BROOKINGS      CLOUDY    57  48  72 S8        30.21R
$$

SDZ017-020-022-023-036>040-048>070-231600-
SOUTHEAST SOUTH DAKOTA

CITY           SKY/WX    TMP DP  RH WIND       PRES   REMARKS
SIOUX FALLS    CLOUDY    58  51  78 E9        30.20R
HURON          CLOUDY    56  48  74 SE9       30.17S
CHAMBERLAIN    CLOUDY    51  51  98 E12       30.14S
MITCHELL       CLOUDY    59  51  75 SE12      30.17R
YANKTON        PTSUNNY   59  52  77 E8        30.17F
$$

ABBREVIATIONS USED IN REMARKS
   TC - TEMPERATURE IN CELSIUS
  WCI - WIND CHILL INDEX
   HX - HEAT INDEX
  VSB - VISIBILITY



USA.gov is the U.S. government's official web portal to all federal, state and local government web resources and services.